Location: Novokuznetsk
(53.7500°N, 87.1000°E)
Time: 19:54:48
(UTC+06:00)

ISS - Pass Details

Date: 07 March 2021
Orbit: 418 x 422 km, 51.6° (Epoch: 16 April)

Event Time Altitude Azimuth Distance (km) Brightness Sun altitude
Exits shadow 05:16:23 28° 247° (WSW) 822 -2.9 -14.0°
Maximum altitude 05:17:36 40° 199° (SSW) 632 -3.1 -13.8°
Drops below altitude 10° 05:20:47 10° 128° (SE) 1,497 -0.3 -13.4°
Sets 05:22:56 0° 121° (ESE) 2,359 0.9 -13.1°
